User: anonymous   Login
Location: Banios
(43.0451°N, 0.2335°E)
Time: 12:48:56
(UTC+00:00)
Language:

Tiros 1 - Orbit

View from above orbital plane
View from above orbital plane
View from above satellite
View from above satellite

Ground track
Ground track

The orbit data is extracted from the following two-line orbital elements,

1 00029U 60002B   21132.89671750 -.00000042  00000-0  24648-4 0  9996
2 00029  48.3788 193.7977 0024362 203.3589 156.6218 14.74427227267151
Epoch (UTC): 12 May 2021 21:31:16
Eccentricity: 0.0024362
inclination: 48.3788°
perigee height: 630 km
apogee height: 664 km
right ascension of ascending node: 193.7977°
argument of perigee: 203.3589°
revolutions per day: 14.74427227
mean anomaly at epoch: 156.6218°
orbit number at epoch: 26715

The dashed part of the orbit path shows where the satellite is in the earth's shadow,  

DLR